| time (UTC) | temp F | wind direction | speed MPH | gust MPH | rain 1hr in | rain 24hr in | rain mn in | humidity % | barometer mb |
| 20260902084526 | 82 | 192 | 0.0 | 0.0 | 0.00 | 0.01 | 0.00 | 91 | 1014.4 |
| 20260902083022 | 82 | 214 | 0.0 | 0.0 | 0.00 | 0.01 | 0.00 | 91 | 1014.4 |
| 20260902081522 | 82 | 186 | 0.0 | 0.0 | 0.00 | 0.01 | 0.00 | 91 | 1014.4 |
| 20260902080022 | 82 | 190 | 0.0 | 0.0 | 0.00 | 0.01 | 0.00 | 91 | 1014.5 |
| 20260902074521 | 82 | 187 | 0.0 | 0.0 | 0.00 | 0.01 | 0.00 | 91 | 1014.6 |
| 20260902073020 | 82 | 186 | 0.0 | 0.0 | 0.00 | 0.01 | 0.00 | 91 | 1014.7 |
| 20260902071520 | 82 | 180 | 0.0 | 0.0 | 0.00 | 0.01 | 0.00 | 91 | 1014.6 |
| 20260902070019 | 82 | 189 | 0.0 | 0.0 | 0.00 | 0.01 | 0.00 | 91 | 1014.6 |
| 20260902064519 | 81 | 198 | 0.0 | 0.0 | 0.00 | 0.01 | 0.00 | 91 | 1014.5 |
| 20260902063018 | 81 | 209 | 0.0 | 0.0 | 0.00 | 0.01 | 0.00 | 91 | 1014.6 |
| 20260902061517 | 82 | 194 | 0.0 | 0.0 | 0.00 | 0.01 | 0.00 | 91 | 1014.5 |
| 20260902060018 | 81 | 192 | 0.0 | 0.0 | 0.00 | 0.01 | 0.00 | 91 | 1014.5 |
| 20260902054516 | 82 | 188 | 0.0 | 0.0 | 0.00 | 0.01 | 0.00 | 91 | 1014.4 |
| 20260902053014 | 82 | 192 | 0.0 | 0.0 | 0.00 | 0.01 | 0.00 | 90 | 1014.4 |
| 20260902051515 | 82 | 209 | 0.0 | 0.0 | 0.00 | 0.01 | 0.00 | 89 | 1014.7 |
| 20260902050009 | 82 | 213 | 0.0 | 0.0 | 0.00 | 0.01 | 0.00 | 89 | 1014.8 |
| 20260902044508 | 82 | 189 | 0.0 | 0.0 | 0.00 | 0.01 | 0.01 | 89 | 1014.7 |
| 20260902043008 | 83 | 197 | 0.0 | 0.0 | 0.00 | 0.01 | 0.01 | 88 | 1014.7 |
| 20260902041508 | 82 | 200 | 0.0 | 0.0 | 0.00 | 0.01 | 0.01 | 88 | 1014.6 |
| 20260902040007 | 82 | 202 | 0.0 | 0.0 | 0.00 | 0.01 | 0.01 | 88 | 1014.7 |
| 20260902034507 | 82 | 236 | 0.0 | 0.0 | 0.00 | 0.01 | 0.01 | 87 | 1014.7 |
| 20260902033006 | 82 | 236 | 0.0 | 0.0 | 0.00 | 0.01 | 0.01 | 86 | 1014.8 |
| 20260902031507 | 82 | 236 | 0.0 | 0.0 | 0.00 | 0.01 | 0.01 | 87 | 1014.5 |
| 20260902030007 | 82 | 236 | 0.0 | 0.0 | 0.00 | 0.01 | 0.01 | 86 | 1014.4 |
| 20260902024505 | 82 | 236 | 0.0 | 0.0 | 0.00 | 0.01 | 0.01 | 86 | 1014.1 |
| 20260902023004 | 82 | 236 | 0.0 | 0.0 | 0.00 | 0.01 | 0.01 | 86 | 1013.9 |
| 20260902021504 | 82 | 236 | 0.0 | 0.0 | 0.00 | 0.01 | 0.01 | 86 | 1013.7 |
| 20260902020004 | 82 | 237 | 0.0 | 0.0 | 0.00 | 0.01 | 0.01 | 86 | 1013.6 |
| 20260902014510 | 82 | 237 | 0.0 | 0.0 | 0.00 | 0.01 | 0.01 | 85 | 1013.5 |
| 20260902013002 | 82 | 237 | 0.0 | 0.0 | 0.00 | 0.01 | 0.01 | 85 | 1013.2 |
| 20260902011502 | 82 | 238 | 0.0 | 0.0 | 0.00 | 0.01 | 0.01 | 86 | 1013.1 |
| 20260902010001 | 82 | 238 | 0.0 | 0.0 | 0.00 | 0.01 | 0.01 | 85 | 1013.0 |
| 20260902004600 | 82 | 238 | 0.0 | 0.0 | 0.00 | 0.01 | 0.01 | 85 | 1013.1 |
| 20260902003059 | 82 | 301 | 0.0 | 0.0 | 0.00 | 0.01 | 0.01 | 85 | 1013.3 |
| 20260902001617 | 82 | 301 | 0.0 | 0.0 | 0.00 | 0.01 | 0.01 | 84 | 1013.4 |
| 20260902000058 | 82 | 302 | 0.0 | 0.0 | 0.00 | 0.01 | 0.01 | 85 | 1013.5 |
| 20260901234558 | 83 | 18 | 0.0 | 2.0 | 0.00 | 0.01 | 0.01 | 85 | 1013.4 |
| 20260901233058 | 83 | 329 | 0.0 | 1.0 | 0.00 | 0.01 | 0.01 | 86 | 1013.4 |
| 20260901231556 | 83 | 329 | 0.0 | 1.0 | 0.00 | 0.01 | 0.01 | 87 | 1013.4 |
| 20260901230055 | 83 | 329 | 0.0 | 3.0 | 0.00 | 0.01 | 0.01 | 86 | 1013.6 |
| 20260901224603 | 83 | 25 | 0.0 | 3.0 | 0.00 | 0.01 | 0.01 | 86 | 1013.8 |
| 20260901223056 | 84 | 360 | 0.0 | 5.0 | 0.00 | 0.01 | 0.01 | 85 | 1013.7 |
| 20260901221600 | 84 | 295 | 0.0 | 4.0 | 0.00 | 0.01 | 0.01 | 85 | 1013.6 |
| 20260901220053 | 84 | 286 | 0.0 | 1.0 | 0.00 | 0.01 | 0.01 | 85 | 1013.5 |
| 20260901214600 | 84 | 288 | 0.0 | 3.0 | 0.00 | 0.01 | 0.01 | 84 | 1013.6 |
| 20260901213055 | 85 | 289 | 0.0 | 2.0 | 0.00 | 0.01 | 0.01 | 84 | 1014.1 |
| 20260901211549 | 85 | 289 | 0.0 | 3.0 | 0.00 | 0.01 | 0.01 | 82 | 1014.3 |
| 20260901210109 | 84 | 290 | 0.0 | 2.0 | 0.00 | 0.01 | 0.01 | 83 | 1014.3 |
| 20260901204548 | 84 | 290 | 0.0 | 3.0 | 0.00 | 0.21 | 0.01 | 82 | 1014.2 |
| 20260901203048 | 84 | 292 | 0.0 | 7.0 | 0.00 | 0.21 | 0.01 | 82 | 1014.0 |
| 20260901201546 | 83 | 298 | 1.0 | 5.0 | 0.00 | 0.21 | 0.01 | 82 | 1014.0 |
| 20260901200044 | 82 | 286 | 1.0 | 8.0 | 0.00 | 0.21 | 0.01 | 84 | 1014.4 |
| 20260901194551 | 83 | 310 | 0.0 | 3.0 | 0.00 | 0.21 | 0.01 | 86 | 1014.9 |
| 20260901193040 | 83 | 327 | 0.0 | 2.0 | 0.01 | 0.21 | 0.01 | 86 | 1015.0 |
| 20260901191548 | 83 | 337 | 0.0 | 2.0 | 0.01 | 0.21 | 0.01 | 86 | 1015.1 |
| 20260901190049 | 83 | 337 | 0.0 | 2.0 | 0.01 | 0.21 | 0.01 | 85 | 1015.3 |
| 20260901184539 | 83 | 344 | 0.0 | 1.0 | 0.01 | 0.21 | 0.01 | 85 | 1015.6 |
| 20260901183059 | 83 | 344 | 0.0 | 0.0 | 0.00 | 0.20 | 0.00 | 86 | 1015.6 |
| 20260901181538 | 84 | 345 | 0.0 | 1.0 | 0.00 | 0.20 | 0.00 | 85 | 1015.6 |
| 20260901180038 | 84 | 344 | 0.0 | 2.0 | 0.00 | 0.20 | 0.00 | 83 | 1015.6 |
| 20260901174540 | 83 | 348 | 0.0 | 5.0 | 0.00 | 0.20 | 0.00 | 82 | 1015.8 |
| 20260901173039 | 83 | 327 | 0.0 | 5.0 | 0.00 | 0.20 | 0.00 | 83 | 1016.1 |
| 20260901171536 | 84 | 325 | 0.0 | 3.0 | 0.00 | 0.20 | 0.00 | 83 | 1016.4 |
| 20260901170013 | 84 | 324 | 0.0 | 3.0 | 0.00 | 0.20 | 0.00 | 82 | 1016.7 |
| 20260901164513 | 84 | 38 | 0.0 | 3.0 | 0.00 | 0.20 | 0.00 | 82 | 1016.7 |
| 20260901163012 | 84 | 39 | 0.0 | 4.0 | 0.00 | 0.20 | 0.00 | 81 | 1016.8 |
| 20260901161511 | 85 | 355 | 2.0 | 5.0 | 0.00 | 0.20 | 0.00 | 80 | 1016.7 |
| 20260901160015 | 85 | 38 | 1.0 | 10.0 | 0.00 | 0.20 | 0.00 | 80 | 1016.8 |
| 20260901154510 | 86 | 18 | 0.0 | 5.0 | 0.00 | 0.20 | 0.00 | 80 | 1016.5 |
| 20260901153008 | 85 | 355 | 0.0 | 4.0 | 0.00 | 0.20 | 0.00 | 81 | 1016.4 |
| 20260901151505 | 85 | 13 | 0.0 | 5.0 | 0.00 | 0.20 | 0.00 | 81 | 1016.3 |
| 20260901150005 | 84 | 19 | 0.0 | 4.0 | 0.00 | 0.20 | 0.00 | 82 | 1016.3 |
| 20260901144559 | 84 | 323 | 0.0 | 5.0 | 0.00 | 0.20 | 0.00 | 84 | 1016.3 |
| 20260901143059 | 83 | 309 | 0.0 | 4.0 | 0.00 | 0.20 | 0.00 | 84 | 1016.3 |
| 20260901141603 | 82 | 21 | 0.0 | 5.0 | 0.00 | 0.20 | 0.00 | 86 | 1016.4 |
| 20260901140059 | 82 | 271 | 0.0 | 2.0 | 0.00 | 0.20 | 0.00 | 88 | 1016.3 |
| 20260901134551 | 82 | 305 | 0.0 | 1.0 | 0.00 | 0.20 | 0.00 | 89 | 1016.2 |
| 20260901133053 | 82 | 304 | 0.0 | 3.0 | 0.00 | 0.20 | 0.00 | 90 | 1016.2 |
| 20260901131549 | 81 | 304 | 0.0 | 2.0 | 0.00 | 0.20 | 0.00 | 90 | 1016.2 |
| 20260901130047 | 81 | 304 | 0.0 | 2.0 | 0.00 | 0.20 | 0.00 | 91 | 1016.1 |
| 20260901124547 | 81 | 304 | 1.0 | 4.0 | 0.00 | 0.20 | 0.00 | 91 | 1015.9 |
| 20260901123040 | 81 | 182 | 0.0 | 1.0 | 0.00 | 0.20 | 0.00 | 91 | 1015.8 |
| 20260901121540 | 81 | 182 | 0.0 | 2.0 | 0.00 | 0.20 | 0.00 | 91 | 1015.4 |
| 20260901120038 | 81 | 182 | 0.0 | 2.0 | 0.00 | 0.20 | 0.00 | 91 | 1015.4 |
| 20260901114536 | 81 | 182 | 0.0 | 2.0 | 0.00 | 0.20 | 0.00 | 91 | 1015.3 |
| 20260901113042 | 81 | 182 | 0.0 | 2.0 | 0.00 | 0.20 | 0.00 | 91 | 1015.4 |
| 20260901111531 | 81 | 181 | 0.0 | 2.0 | 0.00 | 0.20 | 0.00 | 91 | 1015.4 |
| 20260901110030 | 81 | 181 | 0.0 | 2.0 | 0.00 | 0.20 | 0.00 | 91 | 1015.3 |
| 20260901104529 | 82 | 181 | 0.0 | 3.0 | 0.00 | 0.20 | 0.00 | 91 | 1015.2 |
| 20260901103032 | 82 | 181 | 0.0 | 0.0 | 0.00 | 0.20 | 0.00 | 91 | 1015.3 |
| 20260901101529 | 82 | 181 | 0.0 | 2.0 | 0.00 | 0.20 | 0.00 | 91 | 1015.3 |
| 20260901100028 | 82 | 181 | 0.0 | 2.0 | 0.00 | 0.20 | 0.00 | 90 | 1015.2 |
| 20260901094525 | 82 | 181 | 0.0 | 1.0 | 0.00 | 0.20 | 0.00 | 89 | 1015.4 |
| 20260901093028 | 83 | 181 | 0.0 | 1.0 | 0.00 | 0.20 | 0.00 | 89 | 1015.5 |
| 20260901091522 | 83 | 181 | 0.0 | 3.0 | 0.00 | 0.20 | 0.00 | 88 | 1015.6 |
| 20260901090018 | 84 | 181 | 0.0 | 3.0 | 0.00 | 0.20 | 0.00 | 88 | 1015.6 |